Year,Month,Day,Hour,Minute,Value (Times are PST for temperature in C)
2014,12,05,16,22,8.60
2014,12,05,16,23,8.60
2014,12,05,16,24,8.60
2014,12,05,16,25,8.60
2014,12,05,16,26,8.60
2014,12,05,16,27,8.60
2014,12,05,16,28,8.60
2014,12,05,16,29,8.50
2014,12,05,16,30,8.60
2014,12,05,16,31,8.60
2014,12,05,16,32,8.60
2014,12,05,16,33,8.60
2014,12,05,16,34,8.60
2014,12,05,16,35,8.60
2014,12,05,16,36,8.60
2014,12,05,16,37,8.60
2014,12,05,16,38,8.70
2014,12,05,16,39,8.70
2014,12,05,16,40,8.70
2014,12,05,16,41,8.70
2014,12,05,16,42,8.70
2014,12,05,16,43,8.70
2014,12,05,16,44,8.70
2014,12,05,16,45,8.70
2014,12,05,16,46,8.80
2014,12,05,16,47,8.80
2014,12,05,16,48,8.80
2014,12,05,16,49,8.90
2014,12,05,16,50,8.90
2014,12,05,16,51,8.90
2014,12,05,16,52,8.90
2014,12,05,16,53,8.90
2014,12,05,16,54,8.90
2014,12,05,16,55,9.00
2014,12,05,16,56,9.00
2014,12,05,16,57,8.90
2014,12,05,16,58,9.00
2014,12,05,16,59,9.00
2014,12,05,17,00,9.00
2014,12,05,17,01,9.00
2014,12,05,17,02,9.10
2014,12,05,17,03,9.10
2014,12,05,17,04,9.10
2014,12,05,17,05,9.10
2014,12,05,17,06,9.10
2014,12,05,17,07,9.10
2014,12,05,17,08,9.10
2014,12,05,17,09,9.10
2014,12,05,17,10,9.10
2014,12,05,17,11,9.10
2014,12,05,17,12,9.00
2014,12,05,17,13,9.00
2014,12,05,17,14,9.00
2014,12,05,17,15,9.00
2014,12,05,17,16,9.00
2014,12,05,17,17,9.00
2014,12,05,17,18,9.00
2014,12,05,17,19,9.00
2014,12,05,17,20,9.00
2014,12,05,17,21,8.90
2014,12,05,17,22,8.90
2014,12,05,17,23,8.90
2014,12,05,17,24,8.90
2014,12,05,17,25,8.90
2014,12,05,17,26,8.90
2014,12,05,17,27,8.90
2014,12,05,17,28,8.90
2014,12,05,17,29,8.90
2014,12,05,17,30,8.80
2014,12,05,17,31,8.80
2014,12,05,17,32,8.80
2014,12,05,17,33,8.80
2014,12,05,17,34,8.80
2014,12,05,17,35,8.80
2014,12,05,17,36,8.80
2014,12,05,17,37,8.80
2014,12,05,17,38,8.80
2014,12,05,17,39,8.80
2014,12,05,17,40,8.80
2014,12,05,17,41,8.80
2014,12,05,17,42,8.80
2014,12,05,17,43,8.80
2014,12,05,17,44,8.80
2014,12,05,17,45,8.80
2014,12,05,17,46,8.80
2014,12,05,17,47,8.80
2014,12,05,17,48,8.80
2014,12,05,17,49,8.80
2014,12,05,17,50,8.80
2014,12,05,17,51,8.80
2014,12,05,17,52,8.80
2014,12,05,17,53,8.80
2014,12,05,17,54,8.80
2014,12,05,17,55,8.90
2014,12,05,17,56,8.90
2014,12,05,17,57,8.90
2014,12,05,17,58,8.90
2014,12,05,17,59,8.90
2014,12,05,18,00,8.90
2014,12,05,18,01,8.90
2014,12,05,18,02,8.90
2014,12,05,18,03,8.80
2014,12,05,18,04,8.80
2014,12,05,18,05,8.80
2014,12,05,18,06,8.80
2014,12,05,18,07,8.80
2014,12,05,18,08,8.80
2014,12,05,18,09,8.80
2014,12,05,18,10,8.80
2014,12,05,18,11,8.80
2014,12,05,18,12,8.70
2014,12,05,18,13,8.70
2014,12,05,18,14,8.70
2014,12,05,18,15,8.70
2014,12,05,18,16,8.70
2014,12,05,18,17,8.70
2014,12,05,18,18,8.70
2014,12,05,18,19,8.80
2014,12,05,18,20,8.80
2014,12,05,18,21,8.80
2014,12,05,18,22,8.80
2014,12,05,18,23,8.80
2014,12,05,18,24,8.80
2014,12,05,18,25,8.80
2014,12,05,18,26,8.80
2014,12,05,18,27,8.80
2014,12,05,18,28,8.80
2014,12,05,18,29,8.80
2014,12,05,18,30,8.80
2014,12,05,18,31,8.80
2014,12,05,18,32,8.80
2014,12,05,18,33,8.80
2014,12,05,18,34,8.80
2014,12,05,18,35,8.80
2014,12,05,18,36,8.80
2014,12,05,18,37,8.80
2014,12,05,18,38,8.80
2014,12,05,18,39,8.90
2014,12,05,18,40,8.90
2014,12,05,18,41,8.90
2014,12,05,18,42,8.90
2014,12,05,18,43,8.90
2014,12,05,18,44,8.90
2014,12,05,18,45,8.90
2014,12,05,18,46,8.90
2014,12,05,18,47,8.90
2014,12,05,18,48,8.90
2014,12,05,18,49,8.90
2014,12,05,18,50,8.90
2014,12,05,18,51,8.90
2014,12,05,18,52,8.90
2014,12,05,18,53,8.90
2014,12,05,18,54,8.90
2014,12,05,18,55,8.80
2014,12,05,18,56,8.80
2014,12,05,18,57,8.80
2014,12,05,18,58,8.90
2014,12,05,18,59,8.80
2014,12,05,19,00,8.80
2014,12,05,19,01,8.90
2014,12,05,19,02,8.90
2014,12,05,19,03,8.90
2014,12,05,19,04,8.90
2014,12,05,19,05,8.90
2014,12,05,19,06,8.90
2014,12,05,19,07,8.90
2014,12,05,19,08,8.90
2014,12,05,19,09,8.90
2014,12,05,19,10,8.90
2014,12,05,19,11,8.90
2014,12,05,19,12,8.90
2014,12,05,19,13,8.90
2014,12,05,19,14,8.90
2014,12,05,19,15,8.90
2014,12,05,19,16,8.90
2014,12,05,19,17,8.90
2014,12,05,19,18,8.90
2014,12,05,19,19,8.90
2014,12,05,19,20,8.90
2014,12,05,19,21,8.90
2014,12,05,19,22,8.90
2014,12,05,19,23,8.90
2014,12,05,19,24,8.90
2014,12,05,19,25,8.90
2014,12,05,19,26,8.90
2014,12,05,19,27,8.90
2014,12,05,19,28,9.00
2014,12,05,19,29,9.10
2014,12,05,19,30,9.10
2014,12,05,19,31,9.10
2014,12,05,19,32,9.20
2014,12,05,19,33,9.20
2014,12,05,19,34,9.20
2014,12,05,19,35,9.20
2014,12,05,19,36,9.20
2014,12,05,19,37,9.30
2014,12,05,19,38,9.30
2014,12,05,19,39,9.30
2014,12,05,19,40,9.30
2014,12,05,19,41,9.30
2014,12,05,19,42,9.40
2014,12,05,19,43,9.40
2014,12,05,19,44,9.50
2014,12,05,19,45,9.50
2014,12,05,19,46,9.50
2014,12,05,19,47,9.60
2014,12,05,19,48,9.60
2014,12,05,19,49,9.60
2014,12,05,19,50,9.60
2014,12,05,19,51,9.70
2014,12,05,19,52,9.70
2014,12,05,19,53,9.70
2014,12,05,19,54,9.70
2014,12,05,19,55,9.80
2014,12,05,19,56,9.80
2014,12,05,19,57,9.80
2014,12,05,19,58,9.80
2014,12,05,19,59,9.80
2014,12,05,20,00,9.80
2014,12,05,20,01,9.80
2014,12,05,20,02,9.80
2014,12,05,20,03,9.90
2014,12,05,20,04,9.90
2014,12,05,20,05,9.90
2014,12,05,20,06,9.90
2014,12,05,20,07,9.90
2014,12,05,20,08,9.90
2014,12,05,20,09,9.90
2014,12,05,20,10,9.90
2014,12,05,20,11,9.90
2014,12,05,20,12,10.00
2014,12,05,20,13,10.00
2014,12,05,20,14,10.00
2014,12,05,20,15,10.10
2014,12,05,20,16,10.10
2014,12,05,20,17,10.10
2014,12,05,20,18,10.20
2014,12,05,20,19,10.20
2014,12,05,20,20,10.20
2014,12,05,20,21,10.20
2014,12,05,20,22,10.20
2014,12,05,20,23,10.20
2014,12,05,20,24,10.20
2014,12,05,20,25,10.30
2014,12,05,20,26,10.30
2014,12,05,20,27,10.30
2014,12,05,20,28,10.40
2014,12,05,20,29,10.40
2014,12,05,20,30,10.40
2014,12,05,20,31,10.40
2014,12,05,20,32,10.40
2014,12,05,20,33,10.40
2014,12,05,20,34,10.40
2014,12,05,20,35,10.40
2014,12,05,20,36,10.40
2014,12,05,20,37,10.40
2014,12,05,20,38,10.40
2014,12,05,20,39,10.40
2014,12,05,20,40,10.40
2014,12,05,20,41,10.40
2014,12,05,20,42,10.40
2014,12,05,20,43,10.40
2014,12,05,20,44,10.40
2014,12,05,20,45,10.40
2014,12,05,20,46,10.40
2014,12,05,20,47,10.40
2014,12,05,20,48,10.40
2014,12,05,20,49,10.40
2014,12,05,20,50,10.40
2014,12,05,20,51,10.50
2014,12,05,20,52,10.50
2014,12,05,20,53,10.50
2014,12,05,20,54,10.50
2014,12,05,20,55,10.50
2014,12,05,20,56,10.60
2014,12,05,20,57,10.50
2014,12,05,20,58,10.50
2014,12,05,20,59,10.50
2014,12,05,21,00,10.60
2014,12,05,21,01,10.70
2014,12,05,21,02,10.70
2014,12,05,21,03,10.80
2014,12,05,21,04,10.80
2014,12,05,21,05,10.90
2014,12,05,21,06,10.90
2014,12,05,21,07,10.90
2014,12,05,21,08,11.00
2014,12,05,21,09,11.00
2014,12,05,21,10,11.00
2014,12,05,21,11,11.10
2014,12,05,21,12,11.10
2014,12,05,21,13,11.10
2014,12,05,21,14,11.10
2014,12,05,21,15,11.10
2014,12,05,21,16,11.20
2014,12,05,21,17,11.10
2014,12,05,21,18,11.10
2014,12,05,21,19,11.10
2014,12,05,21,20,11.10
2014,12,05,21,21,11.10
2014,12,05,21,22,11.10
2014,12,05,21,23,11.10
2014,12,05,21,24,11.10
2014,12,05,21,25,11.10
2014,12,05,21,26,11.10
2014,12,05,21,27,11.10
2014,12,05,21,28,11.10
2014,12,05,21,29,11.10
2014,12,05,21,30,11.10
2014,12,05,21,31,11.10
2014,12,05,21,32,11.10
2014,12,05,21,33,11.00
2014,12,05,21,34,11.00
2014,12,05,21,35,10.90
2014,12,05,21,36,10.90
2014,12,05,21,37,10.90
2014,12,05,21,38,10.90
2014,12,05,21,39,10.80
2014,12,05,21,40,10.80
2014,12,05,21,41,10.80
2014,12,05,21,42,10.80
2014,12,05,21,43,10.80
2014,12,05,21,44,10.80
2014,12,05,21,45,10.90
2014,12,05,21,46,10.90
2014,12,05,21,47,10.90
2014,12,05,21,48,10.90
2014,12,05,21,49,10.90
2014,12,05,21,50,10.90
2014,12,05,21,51,10.90
2014,12,05,21,52,11.00
2014,12,05,21,53,11.00
2014,12,05,21,54,11.00
2014,12,05,21,55,11.00
2014,12,05,21,56,11.10
2014,12,05,21,57,11.10
2014,12,05,21,58,11.00
2014,12,05,21,59,11.10
2014,12,05,22,00,11.00
2014,12,05,22,01,11.00
2014,12,05,22,02,11.00
2014,12,05,22,03,11.00
2014,12,05,22,04,11.00
2014,12,05,22,05,10.90
2014,12,05,22,06,10.90
2014,12,05,22,07,10.90
2014,12,05,22,08,10.80
2014,12,05,22,09,10.80
2014,12,05,22,10,10.80
2014,12,05,22,11,10.80
2014,12,05,22,12,10.80
2014,12,05,22,13,10.70
2014,12,05,22,14,10.70
2014,12,05,22,15,10.70
2014,12,05,22,16,10.70
2014,12,05,22,17,10.70
2014,12,05,22,18,10.70
2014,12,05,22,19,10.70
2014,12,05,22,20,10.70
2014,12,05,22,21,10.70
2014,12,05,22,22,10.70
2014,12,05,22,23,10.70
2014,12,05,22,24,10.70
2014,12,05,22,25,10.70
2014,12,05,22,26,10.70
2014,12,05,22,27,10.70
2014,12,05,22,28,10.60
2014,12,05,22,29,10.60
2014,12,05,22,30,10.60
2014,12,05,22,31,10.60
2014,12,05,22,32,10.50
2014,12,05,22,33,10.50
2014,12,05,22,34,10.50
2014,12,05,22,35,10.50
2014,12,05,22,36,10.40
2014,12,05,22,37,10.40
2014,12,05,22,38,10.40
2014,12,05,22,39,10.30
2014,12,05,22,40,10.30
2014,12,05,22,41,10.30
2014,12,05,22,42,10.20
2014,12,05,22,43,10.20
2014,12,05,22,44,10.20
2014,12,05,22,45,10.20
2014,12,05,22,46,10.20
2014,12,05,22,47,10.20
2014,12,05,22,48,10.20
2014,12,05,22,49,10.20
2014,12,05,22,50,10.20
2014,12,05,22,51,10.20
2014,12,05,22,52,10.10
2014,12,05,22,53,10.10
2014,12,05,22,54,10.10
2014,12,05,22,55,10.10
2014,12,05,22,56,10.10
2014,12,05,22,57,10.00
2014,12,05,22,58,10.00
2014,12,05,22,59,10.00
2014,12,05,23,00,9.90
2014,12,05,23,01,9.90
2014,12,05,23,02,9.90
2014,12,05,23,03,9.90
2014,12,05,23,04,9.80
2014,12,05,23,05,9.80
2014,12,05,23,06,9.80
2014,12,05,23,07,9.80
2014,12,05,23,08,9.80
2014,12,05,23,09,9.80
2014,12,05,23,10,9.70
2014,12,05,23,11,9.70
2014,12,05,23,12,9.70
2014,12,05,23,13,9.70
2014,12,05,23,14,9.70
2014,12,05,23,15,9.70
2014,12,05,23,16,9.70
2014,12,05,23,17,9.60
2014,12,05,23,18,9.60
2014,12,05,23,19,9.60
2014,12,05,23,20,9.60
2014,12,05,23,21,9.60
2014,12,05,23,22,9.60
2014,12,05,23,23,9.60
2014,12,05,23,24,9.60
2014,12,05,23,25,9.60
2014,12,05,23,26,9.60
2014,12,05,23,27,9.60
2014,12,05,23,28,9.60
2014,12,05,23,29,9.60
2014,12,05,23,30,9.60
2014,12,05,23,31,9.60
2014,12,05,23,32,9.60
2014,12,05,23,33,9.50
2014,12,05,23,34,9.50
2014,12,05,23,35,9.50
2014,12,05,23,36,9.40
2014,12,05,23,37,9.40
2014,12,05,23,38,9.40
2014,12,05,23,39,9.40
2014,12,05,23,40,9.40
2014,12,05,23,41,9.40
2014,12,05,23,42,9.40
2014,12,05,23,43,9.30
2014,12,05,23,44,9.30
2014,12,05,23,45,9.30
2014,12,05,23,46,9.30
2014,12,05,23,47,9.30
2014,12,05,23,48,9.30
2014,12,05,23,49,9.30
2014,12,05,23,50,9.30
2014,12,05,23,51,9.30
2014,12,05,23,52,9.30
2014,12,05,23,53,9.20
2014,12,05,23,54,9.20
2014,12,05,23,55,9.20
2014,12,05,23,56,9.20
2014,12,05,23,57,9.20
2014,12,05,23,58,9.20
2014,12,05,23,59,9.20
